Time,TemperatureF,DewpointF,PressureIn,WindDirection,WindDirectionDegrees,WindSpeedMPH,WindSpeedGustMPH,Humidity,HourlyPrecipIn,Conditions,Clouds,dailyrainin,SoftwareType,DateUTC
2013-02-18 00:01:00,69.0,-99.9,-100.00,East,86,16.0,23.0,-999,0.06,,,-99.99,,2013-02-18 10:01:00,
2013-02-18 00:02:00,68.0,-99.9,-100.00,East,85,16.0,27.0,-999,0.03,,,-99.99,,2013-02-18 10:02:00,
2013-02-18 00:32:00,68.0,-99.9,-100.00,East,85,16.0,27.0,-999,0.03,,,-99.99,,2013-02-18 10:32:00,
2013-02-18 00:43:00,68.0,-99.9,-100.00,East,85,16.0,27.0,-999,0.03,,,-99.99,,2013-02-18 10:43:00,
2013-02-18 00:54:00,68.0,-99.9,-100.00,East,85,16.0,27.0,-999,0.03,,,-99.99,,2013-02-18 10:54:00,
2013-02-18 01:33:00,69.0,-99.9,-100.00,ENE,78,17.0,29.0,-999,0.01,,,-99.99,,2013-02-18 11:33:00,
2013-02-18 01:43:00,69.0,-99.9,-100.00,ENE,78,17.0,29.0,-999,0.01,,,-99.99,,2013-02-18 11:43:00,
2013-02-18 01:54:00,69.0,-99.9,-100.00,ENE,78,17.0,29.0,-999,0.01,,,-99.99,,2013-02-18 11:54:00,
2013-02-18 02:02:00,69.0,-99.9,-100.00,ENE,73,16.0,22.0,-999,0.00,,,-99.99,,2013-02-18 12:02:00,
2013-02-18 02:32:00,69.0,-99.9,-100.00,ENE,73,16.0,22.0,-999,0.00,,,-99.99,,2013-02-18 12:32:00,
2013-02-18 02:42:00,69.0,-99.9,-100.00,ENE,73,16.0,22.0,-999,0.00,,,-99.99,,2013-02-18 12:42:00,
2013-02-18 02:54:00,69.0,-99.9,-100.00,ENE,73,16.0,22.0,-999,0.00,,,-99.99,,2013-02-18 12:54:00,
2013-02-18 03:02:00,69.0,-99.9,-100.00,East,84,17.0,24.0,-999,0.00,,,-99.99,,2013-02-18 13:02:00,
2013-02-18 03:33:00,69.0,-99.9,-100.00,East,84,17.0,24.0,-999,0.00,,,-99.99,,2013-02-18 13:33:00,
2013-02-18 03:43:00,69.0,-99.9,-100.00,East,84,17.0,24.0,-999,0.00,,,-99.99,,2013-02-18 13:43:00,
2013-02-18 03:53:00,69.0,-99.9,-100.00,East,84,17.0,24.0,-999,0.00,,,-99.99,,2013-02-18 13:53:00,
2013-02-18 04:02:00,69.0,-99.9,-100.00,ENE,74,20.0,27.0,-999,0.00,,,-99.99,,2013-02-18 14:02:00,
2013-02-18 04:34:00,69.0,-99.9,-100.00,ENE,74,20.0,27.0,-999,0.00,,,-99.99,,2013-02-18 14:34:00,
2013-02-18 04:42:00,69.0,-99.9,-100.00,ENE,74,20.0,27.0,-999,0.00,,,-99.99,,2013-02-18 14:42:00,
2013-02-18 04:54:00,69.0,-99.9,-100.00,ENE,74,20.0,27.0,-999,0.00,,,-99.99,,2013-02-18 14:54:00,
2013-02-18 05:02:00,69.0,-99.9,-100.00,ENE,77,16.0,23.0,-999,0.00,,,-99.99,,2013-02-18 15:02:00,
2013-02-18 05:32:00,69.0,-99.9,-100.00,ENE,77,16.0,23.0,-999,0.00,,,-99.99,,2013-02-18 15:32:00,
2013-02-18 05:42:00,69.0,-99.9,-100.00,ENE,77,16.0,23.0,-999,0.00,,,-99.99,,2013-02-18 15:42:00,
2013-02-18 05:53:00,69.0,-99.9,-100.00,ENE,77,16.0,23.0,-999,0.00,,,-99.99,,2013-02-18 15:53:00,
2013-02-18 06:02:00,69.0,-99.9,-100.00,ENE,72,14.0,18.0,-999,0.00,,,-99.99,,2013-02-18 16:02:00,
2013-02-18 06:33:00,69.0,-99.9,-100.00,ENE,72,14.0,18.0,-999,0.00,,,-99.99,,2013-02-18 16:33:00,
2013-02-18 06:43:00,69.0,-99.9,-100.00,ENE,72,14.0,18.0,-999,0.00,,,-99.99,,2013-02-18 16:43:00,
2013-02-18 06:54:00,69.0,-99.9,-100.00,ENE,72,14.0,18.0,-999,0.00,,,-99.99,,2013-02-18 16:54:00,
2013-02-18 07:02:00,70.0,-99.9,-100.00,ENE,73,17.0,24.0,-999,0.00,,,-99.99,,2013-02-18 17:02:00,
2013-02-18 07:33:00,70.0,-99.9,-100.00,ENE,73,17.0,24.0,-999,0.00,,,-99.99,,2013-02-18 17:33:00,
2013-02-18 07:43:00,70.0,-99.9,-100.00,ENE,73,17.0,24.0,-999,0.00,,,-99.99,,2013-02-18 17:43:00,
2013-02-18 07:53:00,70.0,-99.9,-100.00,ENE,73,17.0,24.0,-999,0.00,,,-99.99,,2013-02-18 17:53:00,
2013-02-18 08:02:00,69.0,-99.9,-100.00,ENE,78,15.0,21.0,-999,0.00,,,-99.99,,2013-02-18 18:02:00,
2013-02-18 08:33:00,69.0,-99.9,-100.00,ENE,78,15.0,21.0,-999,0.00,,,-99.99,,2013-02-18 18:33:00,
2013-02-18 08:43:00,69.0,-99.9,-100.00,ENE,78,15.0,21.0,-999,0.00,,,-99.99,,2013-02-18 18:43:00,
2013-02-18 08:53:00,69.0,-99.9,-100.00,ENE,78,15.0,21.0,-999,0.00,,,-99.99,,2013-02-18 18:53:00,
2013-02-18 09:02:00,69.0,-99.9,-100.00,ENE,75,16.0,23.0,-999,0.00,,,-99.99,,2013-02-18 19:02:00,
2013-02-18 09:34:00,69.0,-99.9,-100.00,ENE,75,16.0,23.0,-999,0.00,,,-99.99,,2013-02-18 19:34:00,
2013-02-18 09:43:00,69.0,-99.9,-100.00,ENE,75,16.0,23.0,-999,0.00,,,-99.99,,2013-02-18 19:43:00,
2013-02-18 09:53:00,69.0,-99.9,-100.00,ENE,75,16.0,23.0,-999,0.00,,,-99.99,,2013-02-18 19:53:00,
2013-02-18 11:02:00,75.0,-99.9,-100.00,ENE,71,22.0,32.0,-999,0.00,,,-99.99,,2013-02-18 21:02:00,
2013-02-18 11:33:00,75.0,-99.9,-100.00,ENE,71,22.0,32.0,-999,0.00,,,-99.99,,2013-02-18 21:33:00,
2013-02-18 11:43:00,75.0,-99.9,-100.00,ENE,71,22.0,32.0,-999,0.00,,,-99.99,,2013-02-18 21:43:00,
2013-02-18 11:54:00,75.0,-99.9,-100.00,ENE,71,22.0,32.0,-999,0.00,,,-99.99,,2013-02-18 21:54:00,
2013-02-18 13:02:00,77.0,-99.9,-100.00,ENE,65,22.0,35.0,-999,0.00,,,-99.99,,2013-02-18 23:02:00,
2013-02-18 13:34:00,77.0,-99.9,-100.00,ENE,65,22.0,35.0,-999,0.00,,,-99.99,,2013-02-18 23:34:00,
2013-02-18 13:44:00,77.0,-99.9,-100.00,ENE,65,22.0,35.0,-999,0.00,,,-99.99,,2013-02-18 23:44:00,
2013-02-18 13:54:00,77.0,-99.9,-100.00,ENE,65,22.0,35.0,-999,0.00,,,-99.99,,2013-02-18 23:54:00,
2013-02-18 14:02:00,77.0,-99.9,-100.00,ENE,72,21.0,30.0,-999,0.00,,,-99.99,,2013-02-19 00:02:00,
2013-02-18 14:44:00,77.0,-99.9,-100.00,ENE,72,21.0,30.0,-999,0.00,,,-99.99,,2013-02-19 00:44:00,
2013-02-18 14:55:00,77.0,-99.9,-100.00,ENE,72,21.0,30.0,-999,0.00,,,-99.99,,2013-02-19 00:55:00,
2013-02-18 15:02:00,77.0,-99.9,-100.00,ENE,71,22.0,35.0,-999,0.00,,,-99.99,,2013-02-19 01:02:00,
2013-02-18 15:36:00,77.0,-99.9,-100.00,ENE,71,22.0,35.0,-999,0.00,,,-99.99,,2013-02-19 01:36:00,
2013-02-18 15:46:00,77.0,-99.9,-100.00,ENE,71,22.0,35.0,-999,0.00,,,-99.99,,2013-02-19 01:46:00,
2013-02-18 15:57:00,77.0,-99.9,-100.00,ENE,71,22.0,35.0,-999,0.00,,,-99.99,,2013-02-19 01:57:00,
2013-02-18 16:02:00,76.0,-99.9,-100.00,East,80,23.0,33.0,-999,0.00,,,-99.99,,2013-02-19 02:02:00,
2013-02-18 16:36:00,76.0,-99.9,-100.00,East,80,23.0,33.0,-999,0.00,,,-99.99,,2013-02-19 02:36:00,
2013-02-18 16:44:00,76.0,-99.9,-100.00,East,80,23.0,33.0,-999,0.00,,,-99.99,,2013-02-19 02:44:00,
2013-02-18 16:56:00,76.0,-99.9,-100.00,East,80,23.0,33.0,-999,0.00,,,-99.99,,2013-02-19 02:56:00,
2013-02-18 17:02:00,73.0,-99.9,-100.00,ENE,62,17.0,25.0,-999,0.00,,,-99.99,,2013-02-19 03:02:00,
2013-02-18 17:36:00,73.0,-99.9,-100.00,ENE,62,17.0,25.0,-999,0.00,,,-99.99,,2013-02-19 03:36:00,
2013-02-18 17:46:00,73.0,-99.9,-100.00,ENE,62,17.0,25.0,-999,0.00,,,-99.99,,2013-02-19 03:46:00,
2013-02-18 17:56:00,73.0,-99.9,-100.00,ENE,62,17.0,25.0,-999,0.00,,,-99.99,,2013-02-19 03:56:00,
2013-02-18 18:02:00,73.0,-99.9,-100.00,ENE,73,17.0,27.0,-999,0.00,,,-99.99,,2013-02-19 04:02:00,
2013-02-18 18:35:00,73.0,-99.9,-100.00,ENE,73,17.0,27.0,-999,0.00,,,-99.99,,2013-02-19 04:35:00,
2013-02-18 18:45:00,73.0,-99.9,-100.00,ENE,73,17.0,27.0,-999,0.00,,,-99.99,,2013-02-19 04:45:00,
2013-02-18 18:56:00,73.0,-99.9,-100.00,ENE,73,17.0,27.0,-999,0.00,,,-99.99,,2013-02-19 04:56:00,
2013-02-18 19:02:00,71.0,-99.9,-100.00,East,82,15.0,21.0,-999,0.00,,,-99.99,,2013-02-19 05:02:00,
2013-02-18 19:33:00,71.0,-99.9,-100.00,East,82,15.0,21.0,-999,0.00,,,-99.99,,2013-02-19 05:33:00,
2013-02-18 19:43:00,71.0,-99.9,-100.00,East,82,15.0,21.0,-999,0.00,,,-99.99,,2013-02-19 05:43:00,
2013-02-18 19:53:00,71.0,-99.9,-100.00,East,82,15.0,21.0,-999,0.00,,,-99.99,,2013-02-19 05:53:00,
2013-02-18 20:02:00,70.0,-99.9,-100.00,ENE,78,12.0,18.0,-999,0.00,,,-99.99,,2013-02-19 06:02:00,
2013-02-18 20:33:00,70.0,-99.9,-100.00,ENE,78,12.0,18.0,-999,0.00,,,-99.99,,2013-02-19 06:33:00,
2013-02-18 20:42:00,70.0,-99.9,-100.00,ENE,78,12.0,18.0,-999,0.00,,,-99.99,,2013-02-19 06:42:00,
2013-02-18 20:53:00,70.0,-99.9,-100.00,ENE,78,12.0,18.0,-999,0.00,,,-99.99,,2013-02-19 06:53:00,
2013-02-18 21:02:00,70.0,-99.9,-100.00,ENE,72,17.0,27.0,-999,0.00,,,-99.99,,2013-02-19 07:02:00,
2013-02-18 21:33:00,70.0,-99.9,-100.00,ENE,72,17.0,27.0,-999,0.00,,,-99.99,,2013-02-19 07:33:00,
2013-02-18 21:42:00,70.0,-99.9,-100.00,ENE,72,17.0,27.0,-999,0.00,,,-99.99,,2013-02-19 07:42:00,
2013-02-18 21:52:00,70.0,-99.9,-100.00,ENE,72,17.0,27.0,-999,0.00,,,-99.99,,2013-02-19 07:52:00,
2013-02-18 22:02:00,70.0,-99.9,-100.00,ENE,69,14.0,24.0,-999,0.00,,,-99.99,,2013-02-19 08:02:00,
2013-02-18 22:32:00,70.0,-99.9,-100.00,ENE,69,14.0,24.0,-999,0.00,,,-99.99,,2013-02-19 08:32:00,
2013-02-18 22:42:00,70.0,-99.9,-100.00,ENE,69,14.0,24.0,-999,0.00,,,-99.99,,2013-02-19 08:42:00,
2013-02-18 22:52:00,70.0,-99.9,-100.00,ENE,69,14.0,24.0,-999,0.00,,,-99.99,,2013-02-19 08:52:00,
2013-02-18 23:02:00,70.0,-99.9,-100.00,ENE,57,10.0,17.0,-999,0.00,,,-99.99,,2013-02-19 09:02:00,
2013-02-18 23:32:00,70.0,-99.9,-100.00,ENE,57,10.0,17.0,-999,0.00,,,-99.99,,2013-02-19 09:32:00,
2013-02-18 23:42:00,70.0,-99.9,-100.00,ENE,57,10.0,17.0,-999,0.00,,,-99.99,,2013-02-19 09:42:00,
2013-02-18 23:53:00,70.0,-99.9,-100.00,ENE,57,10.0,17.0,-999,0.00,,,-99.99,,2013-02-19 09:53:00,